Regional Weather Roundup
Issued by NWS

Home | Current Version | Previous Version | Text Only | Print | Product List | Glossary On
Versions: 1 2 3 4 5 6 7 8 9 10 11 12 13 14 15 16 17 18 19 20 21 22 23 24 25 26 27 28 29 30 31 32 33 34 35 36 37 38 39 40 41 42 43 44 45 46 47 48 49 50
000
ASUS43 KIND 030309
RWRIN

WEATHER ROUNDUP FOR INDIANA
NATIONAL WEATHER SERVICE INDIANAPOLIS IN
1100 PM EDT THU JUL 02 2015

NOTE: "FAIR" INDICATES FEW OR NO CLOUDS BELOW 12,000 FEET WITH NO
SIGNIFICANT WEATHER AND/OR OBSTRUCTIONS TO VISIBILITY.

* - STATION DOES NOT REPORT WEATHER SUCH AS PRECIPITATION OR FOG.

+ - STATION NOT QUALITY CONTROLLED BY THE NATIONAL WEATHER SERVICE.
    USE DATA WITH CAUTION...ESPECIALLY DEWPOINT AND RELATIVE
    HUMIDITY OBSERVATIONS.

INZ001>003-010>013-019-020-030400-
NORTHWEST INDIANA

CITY           SKY/WX    TMP DP  RH WIND       PRES   REMARKS
GARY /AIRPORT/ CLOUDY    61  59  94 N9        29.99R
KNOX *+        MOCLDY    59  59 100 N7        29.96R
LA PORTE +     MOCLDY    61  58  89 N7        29.98R
MICHIGAN CITY+ MOCLDY    59  52  77 NE5       29.99R
MONTICELLO +   CLOUDY    67  60  78 NE7       29.94R
RENSSELAER +   MOCLDY    63  61  94 N7        29.96R
VALPARAISO     MOCLDY    60  55  83 N5        29.98R

$$

LMZ046-743>745-030400-
SOUTHERN LAKE MICHIGAN

STATION/POSITION TIME  TEMP    WIND        PRES    WAVE
                       AIR SEA DIR/SP/G            HT
                 (UTC) (F)     (DEG/KT/KT) (MB)    (FT)
BURNS HARBOR     0300   63      50/ 15/ 16 1015.6S
MICHIGAN CITY    0300   60      40/ 13/ 14   N/A
5NW MICH CITY    0300   63 63   60/ 12/ 16   N/A     4

$$

INZ004-005-014>016-021>024-030400-
NORTH CENTRAL INDIANA

CITY           SKY/WX    TMP DP  RH WIND       PRES   REMARKS
GOSHEN         PTCLDY    64  55  72 NE7       29.97R
LOGANSPORT +   MOCLDY    66  52  59 NE3       29.96R
PERU/GRISSOM   MOCLDY    66  59  78 NE5       29.94R
ROCHESTER +    MOCLDY    64  59  82 CALM      29.97R
SOUTH BEND     PTCLDY    61  57  87 N7        29.98R
WARSAW +         N/A     63  55  77 E3        29.97R

$$

INZ006>009-017-018-025>027-030400-
NORTHEAST INDIANA

CITY           SKY/WX    TMP DP  RH WIND       PRES   REMARKS
ANGOLA *+        N/A     61  50  67 CALM      29.99R
AUBURN +       PTCLDY    61  55  82 NE3       29.98F
FORT WAYNE     MOCLDY    64  55  72 E9        29.98R
HUNTINGTON +   MOCLDY    64  56  73 E5        29.97R

$$

INZ028-029-035-036-043>045-051>053-030400-
WEST CENTRAL INDIANA

CITY           SKY/WX    TMP DP  RH WIND       PRES   REMARKS
CRAWFORDSVL +  CLEAR     66  60  80 NE6       29.92R
GREENCASTLE +  CLOUDY    70  61  73 NE6       29.91R
LAFAYETTE      CLOUDY    69  60  73 NE12      29.93R
TERRE HAUTE    CLOUDY    73  65  75 NE6       29.88R

$$

INZ030>032-037>040-046>048-054>057-064-065-030400-
CENTRAL INDIANA

CITY           SKY/WX    TMP DP  RH WIND       PRES   REMARKS
CP ATTERBURY + CLOUDY    72  64  78 NE6       29.91R
FRANKFORT +    PTCLDY    68  62  81 NE7       29.95R
GREENWOOD *+   CLOUDY    72  61  68 NE9       29.92R
INDIANAPOLIS   CLOUDY    72  62  71 NE12      29.89R
-EAGLE CREEK   PTCLDY    72  63  73 MISG      29.91R
KOKOMO *+      PTCLDY    64  57  77 E7        29.95R
MARION +       PTCLDY    66  57  72 E8        29.96R
MT COMFORT *+  PTCLDY    68 N/A N/A NE8       29.92S
SHELBYVILLE    CLOUDY    73  64  73 NE7       29.90R
ZIONSVILLE +   CLOUDY    70  61  72 NE6       29.94R

$$

INZ033-034-041-042-049-050-058-059-030400-
EAST CENTRAL INDIANA

CITY           SKY/WX    TMP DP  RH WIND       PRES   REMARKS
MUNCIE         MOCLDY    68  59  73 E13       29.95R

$$

INZ060-061-067>069-081>083-085>088-030400-
SOUTHWEST INDIANA

CITY           SKY/WX    TMP DP  RH WIND       PRES   REMARKS
EVANSVILLE     CLOUDY    75  70  84 N5        29.85F
HUNTINGBURG *+ CLOUDY    72  70  94 N3        29.87S
WASHINGTON +   CLOUDY    72  67  87 CALM      29.86S FOG

$$

INZ062-063-066-070>080-084-089>092-030400-
SOUTH CENTRAL AND SOUTHEAST INDIANA

CITY           SKY/WX    TMP DP  RH WIND       PRES   REMARKS
BLOOMINGTON    CLOUDY    72  67  84 E5        29.89R
MADISON *+     CLOUDY    72  68  88 CALM      29.91S
NORTH VERNON + MOCLDY    73  73 100 E5        29.90R
SEYMOUR +      CLOUDY    72  70  94 CALM      29.89R

$$



USA.gov is the U.S. government's official web portal to all federal, state and local government web resources and services.